EW4685 Weather Reports


Display with metric or nautical units.
time (UTC)temp
F
wind
direction
speed
MPH
gust
MPH
rain 1hr
in
rain 24hr
in
rain mn
in
humidity
%
barometer
mb
20260903041035 62 318 5.0 16.0 0.00 0.18 0.13 52 1012.2
20260903040530 62 356 6.0 14.0 0.00 0.18 0.13 53 1012.1
20260903040024 62 288 6.0 15.0 0.00 0.18 0.13 52 1011.9
20260903035522 62 289 6.0 15.0 0.00 0.18 0.13 52 1011.9
20260903035010 62 256 6.0 16.0 0.00 0.18 0.13 51 1011.9
20260903034504 62 215 6.0 16.0 0.00 0.18 0.13 51 1011.8
20260903033957 62 43 5.0 13.0 0.00 0.18 0.13 51 1011.7
20260903033454 62 296 6.0 16.0 0.00 0.18 0.13 50 1011.5
20260903032954 62 261 6.0 16.0 0.00 0.18 0.13 49 1011.5
20260903032712 62 282 5.0 15.0 0.00 0.18 0.13 49 1011.7
20260903032432 63 299 5.0 14.0 0.00 0.18 0.13 48 1011.5
20260903031454 63 309 5.0 14.0 0.00 0.18 0.13 48 1011.5
20260903030954 63 291 4.0 13.0 0.00 0.18 0.13 49 1011.5
20260903030454 63 323 4.0 12.0 0.00 0.18 0.13 50 1011.7
20260903025954 63 249 5.0 13.0 0.00 0.18 0.13 50 1011.4
20260903025454 63 253 5.0 19.0 0.00 0.18 0.13 51 1011.3
20260903024953 63 262 5.0 19.0 0.00 0.18 0.13 49 1011.4
20260903024454 63 12 4.0 12.0 0.00 0.18 0.13 50 1011.4
20260903023954 63 264 5.0 13.0 0.00 0.18 0.13 49 1011.4
20260903023453 63 327 5.0 13.0 0.00 0.18 0.13 50 1011.5
20260903022953 63 273 4.0 12.0 0.00 0.18 0.13 49 1011.4
20260903022454 63 263 5.0 12.0 0.00 0.18 0.13 50 1011.4
20260903021951 63 185 4.0 11.0 0.00 0.18 0.13 50 1011.3
20260903021451 64 230 3.0 10.0 0.00 0.18 0.13 49 1011.4
20260903020950 63 283 4.0 10.0 0.00 0.18 0.13 51 1011.4
20260903020707 63 259 4.0 10.0 0.00 0.18 0.13 49 1011.4
20260903015950 63 39 4.0 10.0 0.00 0.18 0.13 48 1011.4
20260903015449 63 292 4.0 10.0 0.00 0.18 0.13 50 1011.3
20260903014955 63 295 4.0 9.0 0.00 0.18 0.13 48 1011.5
20260903014455 63 291 4.0 10.0 0.00 0.18 0.13 49 1011.4
20260903013953 63 38 4.0 10.0 0.00 0.18 0.13 49 1011.5
20260903013453 63 264 3.0 10.0 0.00 0.18 0.13 48 1011.4
20260903012953 63 0 4.0 10.0 0.00 0.18 0.13 48 1011.4
20260903012726 63 33 3.0 9.0 0.00 0.18 0.13 48 1011.5
20260903012210 63 328 3.0 11.0 0.00 0.18 0.13 49 1011.5
20260903011453 62 298 4.0 12.0 0.00 0.18 0.13 48 1011.5
20260903010953 62 272 4.0 12.0 0.00 0.18 0.13 46 1011.5
20260903010453 63 338 3.0 13.0 0.00 0.18 0.13 47 1011.7
20260903005953 62 258 4.0 13.0 0.00 0.18 0.13 48 1011.7
20260903005450 62 338 5.0 12.0 0.00 0.18 0.13 44 1011.7
20260903004941 62 273 4.0 11.0 0.00 0.18 0.13 43 1011.4
20260903004441 62 240 4.0 11.0 0.00 0.18 0.13 45 1011.3
20260903003951 62 283 4.0 11.0 0.00 0.18 0.13 48 1011.2
20260903003706 62 291 4.0 13.0 0.00 0.18 0.13 47 1011.3
20260903002942 62 315 4.0 13.0 0.00 0.18 0.13 45 1011.3
20260903002441 62 278 3.0 12.0 0.00 0.18 0.13 48 1011.4
20260903002205 61 283 4.0 12.0 0.00 0.18 0.13 47 1011.4
20260903001442 61 308 3.0 11.0 0.00 0.18 0.13 50 1011.5
20260903000942 61 239 4.0 15.0 0.00 0.18 0.13 48 1011.7
20260903000437 61 298 4.0 15.0 0.00 0.18 0.13 49 1011.5
20260902235931 60 215 4.0 11.0 0.00 0.18 0.13 51 1011.5
20260902235425 60 200 5.0 13.0 0.00 0.18 0.13 51 1011.4
20260902235403 60 232 5.0 13.0 0.01 0.18 0.13 51 1011.4
20260902234419 60 294 5.0 13.0 0.01 0.18 0.13 53 1011.2
20260902233916 60 329 4.0 16.0 0.01 0.18 0.13 53 1011.0
20260902233416 60 291 4.0 16.0 0.01 0.18 0.13 54 1011.0
20260902233136 60 333 4.0 12.0 0.01 0.18 0.13 54 1011.1
20260902232416 60 204 4.0 12.0 0.01 0.18 0.13 56 1010.9
20260902231915 60 249 4.0 14.0 0.01 0.18 0.13 60 1011.0
20260902231415 59 282 5.0 15.0 0.01 0.18 0.13 59 1010.9
20260902230915 59 256 5.0 15.0 0.01 0.18 0.13 58 1011.0
20260902230417 59 260 5.0 15.0 0.01 0.18 0.13 59 1011.1
20260902225915 59 266 4.0 17.0 0.01 0.18 0.13 60 1010.9
20260902225416 59 352 4.0 17.0 0.01 0.18 0.13 61 1010.8
20260902224915 59 6 3.0 12.0 0.00 0.17 0.12 65 1010.8
20260902224416 59 279 3.0 12.0 0.00 0.17 0.12 65 1010.8
20260902224156 59 265 3.0 10.0 0.00 0.17 0.12 67 1010.7
20260902223411 59 313 2.0 7.0 0.00 0.17 0.12 72 1010.7
20260902222904 58 258 2.0 7.0 0.00 0.17 0.12 71 1010.5
20260902222358 58 323 1.0 6.0 0.00 0.17 0.12 75 1010.4
20260902222337 58 274 1.0 6.0 0.00 0.17 0.12 76 1010.4
20260902221355 58 284 2.0 11.0 0.00 0.17 0.12 76 1010.4
20260902220841 57 268 2.0 11.0 0.00 0.17 0.12 75 1010.3
20260902220334 57 312 1.0 6.0 0.00 0.17 0.12 79 1010.3
20260902215828 57 36 1.0 5.0 0.00 0.17 0.12 81 1010.2
20260902215323 56 261 0.0 5.0 0.00 0.17 0.12 84 1010.2
20260902214823 56 209 0.0 3.0 0.00 0.17 0.12 86 1010.0
20260902214310 56 222 0.0 3.0 0.00 0.17 0.12 86 1010.0
20260902213803 56 322 0.0 0.0 0.00 0.17 0.12 86 1009.8
20260902213256 55 322 0.0 0.0 0.00 0.17 0.12 86 1009.7
20260902212751 55 322 0.0 2.0 0.00 0.17 0.12 87 1009.6
20260902212251 55 322 0.0 5.0 0.00 0.17 0.12 87 1009.5
20260902211741 54 286 0.0 5.0 0.00 0.17 0.12 88 1009.4
20260902211720 54 319 0.0 4.0 0.00 0.17 0.12 89 1009.4
20260902210729 54 310 1.0 4.0 0.01 0.17 0.12 89 1009.3
20260902210222 54 36 1.0 4.0 0.01 0.17 0.12 90 1009.1
20260902205717 54 291 1.0 8.0 0.01 0.17 0.12 90 1009.2
20260902205216 54 310 1.0 8.0 0.01 0.17 0.12 91 1009.2
20260902204937 54 298 1.0 4.0 0.01 0.17 0.12 91 1009.4
20260902204217 54 294 0.0 4.0 0.01 0.17 0.12 92 1009.3
20260902203716 54 28 1.0 3.0 0.01 0.17 0.12 92 1009.1
20260902203215 54 301 1.0 4.0 0.01 0.17 0.12 92 1009.3
20260902202715 54 278 1.0 4.0 0.02 0.17 0.12 93 1009.4
20260902202211 54 299 0.0 4.0 0.02 0.17 0.12 93 1009.3
20260902201711 54 355 0.0 4.0 0.02 0.17 0.12 93 1009.3
20260902201211 53 289 1.0 6.0 0.02 0.17 0.12 94 1009.3
20260902200709 53 337 1.0 6.0 0.01 0.17 0.12 94 1009.2
20260902200207 53 296 1.0 5.0 0.02 0.17 0.11 94 1009.1
20260902195706 53 305 1.0 6.0 0.02 0.17 0.11 94 1009.0
20260902195205 53 36 1.0 6.0 0.02 0.17 0.11 94 1009.0
20260902194705 53 42 0.0 2.0 0.02 0.17 0.11 94 1008.9
20260902194206 53 339 0.0 2.0 0.02 0.17 0.11 94 1008.9
20260902193705 53 282 0.0 3.0 0.02 0.17 0.11 94 1009.0
20260902193205 53 310 0.0 3.0 0.02 0.17 0.11 94 1009.2
20260902192705 53 284 0.0 2.0 0.01 0.16 0.10 94 1009.1
20260902192159 53 33 0.0 4.0 0.01 0.16 0.10 94 1009.1
20260902191922 54 60 0.0 4.0 0.01 0.16 0.10 94 1009.2
20260902191152 54 340 0.0 0.0 0.01 0.16 0.10 94 1009.3
20260902191131 54 26 0.0 2.0 0.02 0.16 0.10 94 1009.1
20260902190134 54 313 0.0 4.0 0.02 0.15 0.09 94 1009.1
20260902185630 54 46 0.0 4.0 0.03 0.15 0.09 94 1008.9
20260902185350 53 5 1.0 3.0 0.03 0.15 0.09 94 1008.9
20260902184620 54 18 1.0 4.0 0.03 0.15 0.09 94 1008.5
20260902184120 54 62 1.0 5.0 0.03 0.15 0.09 94 1008.5
20260902183620 54 32 0.0 5.0 0.04 0.15 0.09 94 1008.5
20260902183118 54 33 1.0 6.0 0.05 0.15 0.09 94 1008.5
20260902182620 54 37 2.0 6.0 0.05 0.15 0.09 94 1008.5
20260902182118 54 61 2.0 7.0 0.05 0.15 0.09 94 1008.8
20260902181618 54 61 1.0 7.0 0.05 0.15 0.09 94 1008.9
20260902181118 54 38 1.0 5.0 0.05 0.15 0.09 94 1009.0
20260902180618 54 55 1.0 5.0 0.03 0.13 0.09 94 1008.0
20260902180116 54 47 0.0 4.0 0.02 0.13 0.07 94 1009.0
20260902175618 54 59 0.0 4.0 0.02 0.12 0.06 94 1008.9
20260902175109 54 50 1.0 4.0 0.02 0.12 0.06 94 1008.7
20260902174607 54 45 2.0 6.0 0.02 0.12 0.06 94 1008.5
20260902174106 54 46 2.0 6.0 0.02 0.12 0.06 94 1008.4
20260902173607 54 40 1.0 5.0 0.02 0.11 0.06 94 1009.0
20260902173107 54 22 1.0 4.0 0.01 0.10 0.05 94 1009.1
20260902172607 54 25 1.0 5.0 0.01 0.10 0.05 94 1009.0
20260902172105 54 43 1.0 5.0 0.01 0.10 0.05 94 1008.9
20260902171603 54 24 2.0 7.0 0.01 0.10 0.05 93 1008.9
20260902171149 54 43 2.0 8.0 0.02 0.10 0.05 93 1009.0
20260902170050 54 7 2.0 7.0 0.03 0.10 0.05 93 1009.4
20260902165550 54 7 2.0 7.0 0.03 0.10 0.05 93 1009.3
20260902165319 54 31 2.0 7.0 0.02 0.09 0.04 93 1009.5
20260902164548 54 40 2.0 6.0 0.02 0.09 0.04 93 1010.0
20260902164048 54 44 1.0 4.0 0.03 0.09 0.04 93 1010.0
20260902164027 54 34 0.0 3.0 0.04 0.09 0.04 93 1010.1
20260902163048 54 48 1.0 6.0 0.04 0.09 0.04 93 1010.2
20260902162548 54 60 2.0 6.0 0.04 0.09 0.04 93 1010.1
20260902162039 55 62 1.0 4.0 0.04 0.09 0.04 92 1010.3
20260902161538 55 47 1.0 3.0 0.04 0.09 0.04 92 1010.4
20260902161040 55 46 0.0 5.0 0.03 0.09 0.03 92 1010.7
20260902160539 55 38 1.0 5.0 0.02 0.08 0.02 91 1010.8
20260902160301 55 54 0.0 3.0 0.02 0.07 0.02 91 1010.8
20260902155804 55 344 0.0 4.0 0.02 0.07 0.02 91 1010.8
20260902155034 55 9 1.0 4.0 0.02 0.07 0.02 90 1010.8
20260902154534 55 348 1.0 4.0 0.02 0.07 0.02 90 1010.9
20260902154256 55 36 1.0 6.0 0.01 0.06 0.01 90 1010.8
20260902154019 55 51 1.0 6.0 0.00 0.06 0.00 89 1011.1
20260902153034 55 40 0.0 5.0 0.00 0.06 0.00 90 1011.1
20260902152802 55 38 0.0 2.0 0.00 0.06 0.00 89 1011.0
20260902152035 55 38 0.0 2.0 0.00 0.06 0.00 89 1010.8
20260902151534 55 62 0.0 2.0 0.00 0.06 0.00 89 1010.8
20260902151036 55 56 0.0 0.0 0.00 0.06 0.00 89 1010.8
20260902150535 55 58 0.0 1.0 0.00 0.06 0.00 89 1010.8
20260902150034 55 54 0.0 1.0 0.00 0.06 0.00 90 1010.9
20260902145534 55 5 0.0 0.0 0.00 0.06 0.00 89 1011.0
20260902145034 55 5 0.0 0.0 0.00 0.06 0.00 89 1011.2
20260902144802 55 305 0.0 0.0 0.01 0.06 0.00 89 1011.2
20260902144034 55 305 0.0 0.0 0.01 0.06 0.00 89 1011.2
20260902144017 55 303 0.0 0.0 0.01 0.06 0.00 89 1011.3
20260902143035 55 51 0.0 0.0 0.02 0.06 0.00 90 1011.4
20260902142801 56 304 0.0 2.0 0.02 0.06 0.00 90 1011.8
20260902142247 56 303 0.0 4.0 0.02 0.06 0.00 90 1011.8
20260902141525 56 342 1.0 4.0 0.02 0.06 0.00 90 1012.1
20260902141017 56 38 1.0 4.0 0.02 0.06 0.00 89 1011.9
20260902140510 56 31 0.0 3.0 0.04 0.06 0.00 89 1012.1
20260902140455 56 25 0.0 2.0 0.05 0.06 0.00 89 1012.2
20260902135459 56 277 0.0 3.0 0.06 0.06 0.06 89 1012.4
20260902134953 56 304 0.0 3.0 0.06 0.06 0.06 89 1012.5
20260902134930 56 338 0.0 2.0 0.05 0.05 0.05 88 1012.4
20260902133951 56 353 0.0 3.0 0.05 0.05 0.05 88 1012.7
20260902133436 56 276 1.0 5.0 0.05 0.05 0.05 87 1012.8
20260902132932 56 274 1.0 5.0 0.04 0.04 0.04 87 1012.9
20260902132425 56 287 2.0 5.0 0.04 0.04 0.04 86 1012.8
20260902131917 56 325 1.0 5.0 0.04 0.04 0.04 86 1012.8
20260902131416 56 293 1.0 4.0 0.03 0.03 0.03 86 1012.8
20260902130904 57 6 1.0 4.0 0.03 0.03 0.03 86 1012.8
20260902130359 57 31 0.0 3.0 0.02 0.02 0.02 84 1012.9
20260902125854 57 322 1.0 4.0 0.01 0.01 0.01 82 1012.8
20260902125353 58 313 1.0 4.0 0.00 0.00 0.00 81 1012.8
20260902125333 58 341 1.0 4.0 0.00 0.00 0.00 79 1012.8
20260902124354 58 40 1.0 3.0 0.00 0.00 0.00 78 1012.9
20260902123852 58 289 0.0 3.0 0.00 0.00 0.00 78 1012.8
20260902123349 59 301 0.0 3.0 0.00 0.00 0.00 77 1012.7
20260902122849 59 347 1.0 5.0 0.00 0.00 0.00 77 1012.7
20260902122348 59 349 1.0 5.0 0.00 0.00 0.00 76 1012.5
20260902121847 59 31 1.0 3.0 0.00 0.00 0.00 76 1012.6
20260902121605 59 41 1.0 5.0 0.00 0.00 0.00 76 1012.7
20260902120844 59 339 2.0 6.0 0.00 0.00 0.00 77 1012.8
20260902120603 59 36 2.0 6.0 0.00 0.00 0.00 77 1012.8
20260902115842 59 61 1.0 5.0 0.00 0.00 0.00 77 1012.8
20260902115342 59 45 2.0 7.0 0.00 0.00 0.00 77 1012.9
20260902114842 59 346 2.0 7.0 0.00 0.00 0.00 77 1012.9
20260902114341 59 38 2.0 12.0 0.00 0.00 0.00 77 1012.9
20260902113842 59 336 3.0 12.0 0.00 0.00 0.00 77 1012.9
20260902113338 60 349 2.0 8.0 0.00 0.00 0.00 76 1012.8
20260902113100 59 40 1.0 6.0 0.00 0.00 0.00 77 1012.8
20260902112337 59 308 2.0 7.0 0.00 0.00 0.00 77 1012.9
20260902111837 59 55 2.0 7.0 0.00 0.00 0.00 77 1013.0
20260902111605 59 337 1.0 7.0 0.00 0.00 0.00 78 1013.0
20260902110834 59 19 1.0 7.0 0.00 0.00 0.00 78 1013.0
20260902110554 59 0 1.0 4.0 0.00 0.00 0.00 78 1013.1
20260902105834 59 296 1.0 5.0 0.00 0.00 0.00 78 1013.1
20260902105334 58 352 1.0 5.0 0.00 0.00 0.00 78 1013.1
20260902105059 58 292 0.0 5.0 0.00 0.00 0.00 78 1013.4
20260902104335 58 319 1.0 7.0 0.00 0.00 0.00 78 1013.4
20260902103835 58 293 1.0 7.0 0.00 0.00 0.00 79 1013.0
20260902103335 58 11 0.0 3.0 0.00 0.00 0.00 78 1013.1
20260902103058 58 39 0.0 2.0 0.00 0.00 0.00 78 1013.4
20260902102335 58 292 0.0 2.0 0.00 0.00 0.00 77 1013.4
20260902101837 58 26 0.0 1.0 0.00 0.00 0.00 77 1013.5
20260902101335 58 38 0.0 2.0 0.00 0.00 0.00 76 1013.5
20260902100836 58 31 0.0 4.0 0.00 0.00 0.00 75 1013.4
20260902100334 59 33 1.0 4.0 0.00 0.00 0.00 75 1013.4
20260902095835 59 341 1.0 3.0 0.00 0.00 0.00 74 1013.2
20260902095335 59 34 0.0 2.0 0.00 0.00 0.00 74 1013.6
20260902094834 59 41 0.0 5.0 0.00 0.00 0.00 74 1013.7
20260902094335 59 34 0.0 5.0 0.00 0.00 0.00 73 1013.6
20260902093835 59 22 0.0 4.0 0.00 0.00 0.00 73 1013.5
20260902093334 60 34 0.0 3.0 0.00 0.00 0.00 72 1013.4
20260902092836 60 31 0.0 3.0 0.00 0.00 0.00 71 1013.5
20260902092332 60 358 0.0 2.0 0.00 0.00 0.00 70 1013.7
20260902091833 60 14 0.0 2.0 0.00 0.00 0.00 69 1013.6
20260902091332 60 13 0.0 4.0 0.00 0.00 0.00 69 1013.5
20260902090826 61 303 1.0 4.0 0.00 0.00 0.00 68 1013.5
20260902090324 61 57 1.0 4.0 0.00 0.00 0.00 68 1013.6
20260902085824 61 25 0.0 3.0 0.00 0.00 0.00 67 1013.7
20260902085323 61 47 0.0 4.0 0.00 0.00 0.00 67 1013.8
20260902084829 61 339 0.0 4.0 0.00 0.00 0.00 67 1013.9
20260902084324 61 299 0.0 4.0 0.00 0.00 0.00 66 1013.8
20260902083824 61 33 1.0 6.0 0.00 0.00 0.00 66 1013.8
20260902083323 61 313 2.0 6.0 0.00 0.00 0.00 65 1013.8
20260902082824 61 275 2.0 5.0 0.00 0.00 0.00 65 1013.6
20260902082324 61 299 2.0 8.0 0.00 0.00 0.00 65 1013.7
20260902082047 61 294 1.0 8.0 0.00 0.00 0.00 65 1013.5
20260902081324 61 312 0.0 1.0 0.00 0.00 0.00 64 1013.5
20260902080820 61 339 0.0 2.0 0.00 0.00 0.00 64 1013.5
20260902080320 61 290 0.0 3.0 0.00 0.00 0.00 63 1013.6
20260902075820 62 290 1.0 5.0 0.00 0.00 0.00 63 1013.5
20260902075318 62 318 1.0 7.0 0.00 0.00 0.00 62 1013.4
20260902074816 62 270 1.0 7.0 0.00 0.00 0.00 62 1013.4
20260902074317 62 353 1.0 4.0 0.00 0.00 0.00 62 1013.4
20260902074038 62 268 1.0 5.0 0.00 0.00 0.00 61 1013.4
20260902073317 63 59 1.0 5.0 0.00 0.00 0.00 61 1013.2
20260902072803 63 301 1.0 6.0 0.00 0.00 0.00 60 1013.4
20260902072524 63 320 1.0 6.0 0.00 0.00 0.00 61 1013.5
20260902071755 63 343 2.0 9.0 0.00 0.00 0.00 60 1013.5
20260902071247 63 251 2.0 9.0 0.00 0.00 0.00 59 1013.2
20260902070747 64 297 3.0 7.0 0.00 0.00 0.00 58 1013.4
20260902070234 64 213 3.0 9.0 0.00 0.00 0.00 58 1013.4
20260902065730 64 293 4.0 13.0 0.00 0.00 0.00 57 1013.2
20260902065225 64 284 4.0 13.0 0.00 0.00 0.00 57 1013.2
20260902064718 64 278 4.0 11.0 0.00 0.00 0.00 57 1013.1
20260902064217 65 301 3.0 9.0 0.00 0.00 0.00 56 1013.1
20260902063706 65 331 3.0 11.0 0.00 0.00 0.00 55 1012.9
20260902063200 65 304 3.0 11.0 0.00 0.00 0.00 55 1012.9
20260902063136 65 303 3.0 15.0 0.00 0.00 0.00 55 1012.9
20260902062147 65 259 2.0 15.0 0.00 0.00 0.00 55 1013.0
20260902061733 65 263 2.0 8.0 0.00 0.00 0.00 56 1012.9
20260902060629 65 269 4.0 14.0 0.00 0.00 0.00 54 1012.9
20260902060125 66 292 5.0 14.0 0.00 0.00 0.00 53 1012.9
20260902055618 66 251 4.0 12.0 0.00 0.00 0.00 52 1012.9
20260902055112 67 261 4.0 12.0 0.00 0.00 0.00 52 1013.0
20260902054605 67 287 4.0 11.0 0.00 0.00 0.00 53 1013.0
20260902054059 67 257 4.0 16.0 0.00 0.00 0.00 50 1013.1
20260902053555 68 321 3.0 16.0 0.00 0.00 0.00 50 1013.2
20260902053047 68 294 3.0 9.0 0.00 0.00 0.00 51 1013.2
20260902052541 68 255 3.0 8.0 0.00 0.00 0.00 50 1013.2
20260902052036 68 251 4.0 12.0 0.00 0.00 0.00 50 1013.4
20260902051529 68 302 3.0 12.0 0.00 0.00 0.00 50 1013.5
20260902051025 67 265 3.0 12.0 0.00 0.00 0.00 52 1013.4
20260902050749 67 252 4.0 12.0 0.00 0.00 0.00 51 1013.4
20260902050023 67 308 3.0 8.0 0.00 0.00 0.00 51 1013.4
20260902045505 67 219 2.0 8.0 0.00 0.00 0.00 50 1013.2
20260902044959 67 253 2.0 7.0 0.00 0.00 0.00 51 1013.4
20260902044500 67 289 3.0 7.0 0.00 0.00 0.00 51 1013.4
20260902043948 67 257 3.0 9.0 0.00 0.00 0.00 50 1013.2
20260902043448 67 241 4.0 11.0 0.00 0.00 0.00 50 1013.2
20260902042935 67 1 4.0 11.0 0.00 0.00 0.00 50 1013.2
20260902042655 67 247 3.0 9.0 0.00 0.00 0.00 49 1013.1
20260902042147 68 334 4.0 11.0 0.00 0.00 0.00 48 1013.1
20260902041635 69 256 4.0 11.0 0.00 0.00 0.00 47 1013.1